Flag for Japan Weather past 2 weeks in Suzuka, Japan

Now
82 °F

Warm.


Feels Like: 85 °F
Forecast: 68 / 82 °F
Wind: 13 mph from Southeast

Location: Tsu

Current Time: Aug 30, 2014 at 2:07:09 PM

Latest Report: Aug 30, 2014 at 1:00 PM


Visibility: N/A

Pressure: 29.90 "Hg

Humidity: 61%

Dew point: 67 °F

Location of SuzukaLocation

Historic Weather in Suzuka — Graph

°F

Suzuka temperature yesterday

Maximum temperature yesterday: 80 °F (at 2:00 PM)
Minimum temperature yesterday: 70 °F (at 11:00 PM)
Average temperature yesterday: 74 °F

Past Weeks' High & Low Weather Summary

 TemperatureHumidityPressure
High92 °F (Aug 26, 2:00 PM)95% (Aug 17, 3:00 AM)30.01 "Hg (Aug 17, 3:00 AM)
Low69 °F (Aug 30, 6:00 AM)52% (Aug 26, 2:00 PM)29.70 "Hg (Aug 26, 3:00 PM)
Average80 °F81%29.90 "Hg
* Reported Aug 15 12:00 Noon — Aug 30 12:00 Noon, Suzuka, Weather by CustomWeather, © 2014

Note: Actual official high and low records may vary slightly from our data, if they occured in-between our weather recording intervals... More about our weather records

Advertising

Suzuka weather history for previous 24 hours

 ConditionsComfort  
Time TempWeatherWind HumidityBarometerVisibility
12:00 PM
Aug 30
80 °FWarm.8 mph67%29.90 "HgN/A
11:00 AM79 °FWarm.7 mph68%29.91 "HgN/A
10:00 AM78 °FWarm.6 mph68%29.92 "HgN/A
9:00 AM76 °FPartly sunny.3 mph74%29.93 "Hg12 mi
8:00 AM73 °FMild.3 mph77%29.93 "HgN/A
7:00 AM71 °FMild.5 mph83%29.94 "HgN/A
6:00 AM69 °FMild.5 mph90%29.93 "HgN/A
4:00 AM70 °FMild.5 mph89%29.94 "HgN/A
3:00 AM70 °FMild.3 mph87%29.94 "HgN/A
2:00 AM70 °FMild.7 mph80%29.94 "HgN/A
1:00 AM71 °FMild.3 mph83%29.95 "HgN/A
12:00 AM70 °FMild.7 mph82%29.96 "HgN/A
11:00 PM
Aug 29
70 °FMild.7 mph81%29.97 "HgN/A
10:00 PM72 °FMild.3 mph86%29.97 "HgN/A
9:00 PM72 °FSprinkles. Overcast.5 mph92%29.96 "Hg12 mi
8:00 PM74 °FMild.2 mph89%29.95 "HgN/A
7:00 PM75 °FMild.1 mph82%29.96 "HgN/A
6:00 PM76 °FMild.5 mph78%29.95 "HgN/A
5:00 PM76 °FMild.5 mph79%29.94 "HgN/A
4:00 PM78 °FWarm.5 mph70%29.94 "HgN/A
3:00 PM79 °FOvercast.7 mph63%29.94 "Hg12 mi
2:00 PM80 °FWarm.7 mph58%29.95 "HgN/A
Weather by CustomWeather, © 2014

See weather overviewHow to use our weather pages